Regional Weather Roundup
Issued by NWS

Home | Current Version | Previous Version | Text Only | Print | Product List | Glossary Off
Versions: 1 2 3 4 5 6 7 8 9 10 11 12 13 14 15 16 17 18 19 20 21 22 23 24 25 26 27 28 29 30 31 32 33 34 35 36 37 38 39 40 41 42 43 44 45 46 47 48 49 50

000
ASUS45 KCYS 220910
RWRWY

WYOMING REGIONAL WEATHER ROUNDUP
NATIONAL WEATHER SERVICE CHEYENNE WY
300 AM MDT TUE AUG 22 2017

NOTE:  "FAIR" INDICATES FEW OR NO CLOUDS BELOW 12,000 FEET
WITH NO SIGNIFICANT WEATHER AND/OR OBSTRUCTIONS TO VISIBILITY.

WYZ001-221000-
YELLOWSTONE NATIONAL PARK

CITY           SKY/WX    TMP DP  RH WIND       PRES   REMARKS
LK YELLOWSTONE   N/A     37  33  85 CALM      30.44R
W YELLOWSTONE  NOT AVBL

$$
WYZ002>013-054>058-071-098>099-221000-
NORTHERN WYOMING

CITY           SKY/WX    TMP DP  RH WIND       PRES   REMARKS
JACKSON        FAIR      43  30  60 NE6       30.34S
CODY           FAIR      56  35  45 CALM      30.26S
GREYBULL       FAIR      56  35  45 SE3       30.19
WORLAND        FAIR      49  33  54 S6        30.20S
SHERIDAN       FAIR      49  38  65 N6        30.19F
BUFFALO        FAIR      59  32  36 CALM      30.26F
GILLETTE       FAIR      53  36  52 S8        30.23F
HULETT         FAIR      54  36  50 S6        30.25F
NEWCASTLE      FAIR      52  34  50 E6        30.27F

$$
WYZ014>020-022>026-101>103-221000-
CENTRAL WYOMING

CITY           SKY/WX    TMP DP  RH WIND       PRES   REMARKS
BIG PINEY      FAIR      40  24  53 NE8       30.37R WCI  34
PINEDALE       FAIR      36  30  80 W6        30.37S WCI  31
DUBOIS         FAIR      45  30  57 NW10      30.39S
LANDER           N/A    N/A N/A N/A MISG      30.29S
RIVERTON       FAIR      59  34  39 NE9       30.27S
CASPER         FAIR      47  37  68 NW8       30.27S
DOUGLAS        FAIR      53  41  63 E10       30.28S

$$
WYZ021-027>030-104>119-221000-
SOUTHERN WYOMING

CITY           SKY/WX    TMP DP  RH WIND       PRES   REMARKS
EVANSTON       FAIR      59  36  42 SE6       30.36S
KEMMERER         N/A     52  30  43 NW9       30.38S
FORT BRIDGER   FAIR      63  31  30 SW8       30.38S
ROCK SPRINGS   FAIR      59  34  39 E5        30.34R
RAWLINS        NOT AVBL
SARATOGA       FAIR      55  36  47 SE6       30.34R
LARAMIE        FAIR      54  41  61 SE15      30.37S
CHEYENNE       FAIR      55  46  71 S6        30.36R
TORRINGTON     FAIR      53  44  71 NE5       30.26S
PINE BLUFFS    FAIR      55  45  67 E6        30.32S

$$



USA.gov is the U.S. government's official web portal to all federal, state and local government web resources and services.